QTR245 OTHH-LTFM

Flight info

Callsign QTR245
Flight time N/A
Altitude 28000
Route DATRI2W/34L DATRI L564 BAT/N0508F290 L564 MIGMA/N0496F280 M628 AMBAG/N0494F340 DCT OVANO/N0485F360 L768 FIRAS R655 KTN R785 NIKAS L619 VESAR UB545 MUT UL619 OSVEL UB545 KFK UM855 SISPI
Aircraft B77W/H-SDE1E2E3FGHIJ2J3J4J5M1RWXY/LB1D1

Departure

Time N/A
Airport Hamad International Airport (OTHH)

Arrival

Time 2026-05-04 14:44
Airport İstanbul Airport (LTFM)
Time Latitude Longitude Altitude Speed Heading
2026-05-04 13:33 35.63316 34.69183 35817 ft 451 kts 293°
2026-05-04 13:34 35.66212 34.62326 35814 ft 451 kts 293°
2026-05-04 13:34 35.69103 34.55467 35808 ft 451 kts 293°
2026-05-04 13:35 35.73435 34.45166 35805 ft 452 kts 293°
2026-05-04 13:36 35.76288 34.38362 35807 ft 452 kts 293°
2026-05-04 13:36 35.79188 34.31430 35804 ft 452 kts 294°
2026-05-04 13:37 35.82066 34.24540 35804 ft 452 kts 294°
2026-05-04 13:37 35.84944 34.17632 35806 ft 452 kts 294°
2026-05-04 13:38 35.87813 34.10735 35793 ft 453 kts 294°
2026-05-04 13:38 35.91032 34.04037 35805 ft 458 kts 305°
2026-05-04 13:39 35.95585 33.98514 35793 ft 467 kts 319°
2026-05-04 13:39 36.01136 33.94196 35794 ft 472 kts 324°
2026-05-04 13:40 36.06797 33.90049 35799 ft 473 kts 324°
2026-05-04 13:40 36.12422 33.85827 35794 ft 473 kts 324°
2026-05-04 13:41 36.18028 33.81559 35790 ft 473 kts 324°
2026-05-04 13:41 36.23640 33.77278 35790 ft 474 kts 324°
2026-05-04 13:42 36.32076 33.70851 35777 ft 474 kts 324°
2026-05-04 13:42 36.37662 33.66596 35779 ft 474 kts 324°
2026-05-04 13:43 36.43293 33.62297 35772 ft 476 kts 324°
2026-05-04 13:43 36.48936 33.57980 35766 ft 476 kts 324°
2026-05-04 13:44 36.54576 33.53658 35762 ft 476 kts 324°
2026-05-04 13:44 36.59290 33.50039 35767 ft 476 kts 324°
2026-05-04 13:45 36.64908 33.45720 35774 ft 475 kts 325°
2026-05-04 13:45 36.70544 33.41378 35767 ft 475 kts 325°
2026-05-04 13:46 36.76165 33.37041 35777 ft 475 kts 325°
2026-05-04 13:46 36.81777 33.32704 35777 ft 475 kts 325°
2026-05-04 13:47 36.87106 33.27874 35783 ft 471 kts 316°
2026-05-04 13:47 36.91654 33.22103 35793 ft 468 kts 310°
2026-05-04 13:48 36.96035 33.16060 35790 ft 468 kts 310°
2026-05-04 13:48 37.00411 33.10032 35799 ft 467 kts 310°
2026-05-04 13:49 37.04794 33.04030 35800 ft 467 kts 311°
2026-05-04 13:49 37.09162 32.98058 35812 ft 467 kts 311°
2026-05-04 13:50 37.13545 32.92057 35812 ft 467 kts 311°
2026-05-04 13:50 37.17923 32.86050 35814 ft 466 kts 311°
2026-05-04 13:51 37.22299 32.80033 35801 ft 466 kts 311°
2026-05-04 13:51 37.26675 32.74005 35815 ft 466 kts 311°
2026-05-04 13:52 37.33183 32.65020 35815 ft 464 kts 311°
2026-05-04 13:53 37.37528 32.59006 35810 ft 464 kts 311°
2026-05-04 13:53 37.41864 32.52994 35814 ft 463 kts 311°
2026-05-04 13:54 37.48341 32.43993 35826 ft 462 kts 311°
2026-05-04 13:55 37.54807 32.34982 35824 ft 462 kts 311°
2026-05-04 13:55 37.61232 32.26002 35843 ft 461 kts 311°
2026-05-04 13:56 37.65532 32.19979 35847 ft 461 kts 311°
2026-05-04 13:57 37.71964 32.10949 35868 ft 461 kts 311°
2026-05-04 13:58 37.80536 31.98874 35884 ft 461 kts 312°
2026-05-04 13:58 37.86930 31.89837 35889 ft 461 kts 312°
2026-05-04 13:59 37.91211 31.83772 35899 ft 461 kts 312°
2026-05-04 14:00 37.97599 31.74700 35885 ft 461 kts 312°
2026-05-04 14:00 38.03983 31.65608 35902 ft 460 kts 312°
2026-05-04 14:01 38.08237 31.59537 35906 ft 460 kts 312°
2026-05-04 14:02 38.14616 31.50410 35909 ft 460 kts 312°
2026-05-04 14:02 38.18859 31.44323 35912 ft 460 kts 312°
2026-05-04 14:03 38.23098 31.38228 35916 ft 459 kts 312°
2026-05-04 14:03 38.27327 31.32138 35915 ft 459 kts 312°
2026-05-04 14:04 38.33642 31.23021 35934 ft 459 kts 312°
2026-05-04 14:04 38.37869 31.16903 35931 ft 459 kts 312°
2026-05-04 14:05 38.44176 31.07754 35938 ft 459 kts 312°
2026-05-04 14:06 38.48375 31.01611 35934 ft 459 kts 310°
2026-05-04 14:06 38.52275 30.95125 35944 ft 459 kts 308°
2026-05-04 14:07 38.56090 30.88585 35957 ft 460 kts 308°
2026-05-04 14:07 38.59935 30.82028 35950 ft 461 kts 308°
2026-05-04 14:08 38.63787 30.75481 35959 ft 461 kts 308°
2026-05-04 14:08 38.67642 30.68916 35962 ft 461 kts 308°
2026-05-04 14:09 38.74302 30.60215 35984 ft 458 kts 324°
2026-05-04 14:10 38.82648 30.54240 35980 ft 459 kts 333°
2026-05-04 14:10 38.88385 30.50574 35968 ft 461 kts 333°
2026-05-04 14:11 38.94100 30.46860 35978 ft 461 kts 333°
2026-05-04 14:11 39.02652 30.41226 35982 ft 461 kts 333°
2026-05-04 14:12 39.08360 30.37451 35977 ft 461 kts 333°
2026-05-04 14:13 39.16904 30.31791 35976 ft 461 kts 333°
2026-05-04 14:13 39.22610 30.28003 35976 ft 461 kts 333°
2026-05-04 14:14 39.28316 30.24209 35987 ft 461 kts 333°
2026-05-04 14:14 39.36874 30.18503 35989 ft 461 kts 333°
2026-05-04 14:15 39.48294 30.11057 35987 ft 460 kts 337°
2026-05-04 14:16 39.57140 30.06197 35411 ft 469 kts 338°
2026-05-04 14:17 39.63174 30.02871 33929 ft 470 kts 339°
2026-05-04 14:17 39.66170 30.01203 32932 ft 469 kts 339°
2026-05-04 14:17 39.72155 29.97860 31035 ft 467 kts 340°
2026-05-04 14:18 39.75114 29.96207 30229 ft 464 kts 340°
2026-05-04 14:18 39.80994 29.92911 28768 ft 452 kts 340°
2026-05-04 14:19 39.86610 29.89749 28258 ft 424 kts 340°
2026-05-04 14:19 39.89277 29.88247 28092 ft 411 kts 340°
2026-05-04 14:19 39.91924 29.87075 27875 ft 394 kts 352°
2026-05-04 14:19 39.94609 29.86842 27526 ft 380 kts
2026-05-04 14:20 39.97231 29.86897 27178 ft 374 kts
2026-05-04 14:20 39.99820 29.86908 26850 ft 373 kts 359°
2026-05-04 14:20 40.02406 29.86404 26510 ft 379 kts 348°
2026-05-04 14:21 40.07223 29.83403 25851 ft 390 kts 329°
2026-05-04 14:21 40.09406 29.81295 25588 ft 390 kts 327°
2026-05-04 14:21 40.11534 29.79110 25385 ft 388 kts 326°
2026-05-04 14:21 40.13604 29.76948 25244 ft 384 kts 326°
2026-05-04 14:22 40.15681 29.74766 24946 ft 383 kts 326°
2026-05-04 14:22 40.17763 29.72577 24556 ft 384 kts 326°
2026-05-04 14:22 40.19850 29.70380 24205 ft 384 kts 326°
2026-05-04 14:22 40.21934 29.68188 23909 ft 383 kts 326°
2026-05-04 14:23 40.26005 29.63732 23332 ft 382 kts 320°
2026-05-04 14:23 40.27861 29.61277 22933 ft 374 kts 319°
2026-05-04 14:23 40.29651 29.58828 22144 ft 371 kts 318°
2026-05-04 14:24 40.31428 29.56386 21261 ft 370 kts 318°
2026-05-04 14:24 40.33197 29.53966 20460 ft 367 kts 319°
2026-05-04 14:24 40.34960 29.51567 19735 ft 363 kts 319°
2026-05-04 14:24 40.36712 29.49192 19123 ft 359 kts 319°
2026-05-04 14:25 40.38457 29.46838 18680 ft 360 kts 319°
2026-05-04 14:25 40.41966 29.42112 17681 ft 361 kts 319°
2026-05-04 14:25 40.43714 29.39755 17214 ft 359 kts 319°
2026-05-04 14:26 40.45426 29.37443 16768 ft 356 kts 319°
2026-05-04 14:26 40.47145 29.35121 16304 ft 352 kts 319°
2026-05-04 14:26 40.48845 29.32824 15876 ft 349 kts 319°
2026-05-04 14:26 40.49960 29.31316 15575 ft 347 kts 319°
2026-05-04 14:27 40.52194 29.28293 14988 ft 336 kts 319°
2026-05-04 14:27 40.53254 29.26854 14711 ft 327 kts 319°
2026-05-04 14:27 40.54858 29.24680 14305 ft 325 kts 319°
2026-05-04 14:27 40.56433 29.22547 13880 ft 324 kts 319°
2026-05-04 14:28 40.57999 29.20424 13431 ft 323 kts 319°
2026-05-04 14:28 40.59549 29.18324 12982 ft 322 kts 319°
2026-05-04 14:28 40.61094 29.16226 12574 ft 315 kts 319°
2026-05-04 14:28 40.62594 29.14184 12168 ft 305 kts 319°
2026-05-04 14:29 40.65468 29.10270 11322 ft 290 kts 319°
2026-05-04 14:29 40.68290 29.06432 10603 ft 297 kts 319°
2026-05-04 14:30 40.69720 29.04482 10456 ft 291 kts 319°
2026-05-04 14:30 40.71100 29.02593 10303 ft 275 kts 319°
2026-05-04 14:30 40.73557 28.99221 10070 ft 237 kts 320°
2026-05-04 14:31 40.74687 28.97679 9985 ft 235 kts 320°
2026-05-04 14:31 40.77069 28.94441 9413 ft 252 kts 319°
2026-05-04 14:32 40.79477 28.91144 8760 ft 249 kts 319°
2026-05-04 14:32 40.80679 28.89495 8437 ft 248 kts 318°
2026-05-04 14:32 40.81869 28.87863 8148 ft 247 kts 318°
2026-05-04 14:32 40.83064 28.86224 7822 ft 246 kts 318°
2026-05-04 14:33 40.84246 28.84600 7515 ft 245 kts 317°
2026-05-04 14:33 40.85426 28.82980 7196 ft 244 kts 317°
2026-05-04 14:33 40.86608 28.81366 6892 ft 241 kts 320°
2026-05-04 14:33 40.87955 28.80138 6578 ft 234 kts 334°
2026-05-04 14:34 40.89424 28.79209 6272 ft 233 kts 336°
2026-05-04 14:34 40.90894 28.78303 5953 ft 232 kts 336°
2026-05-04 14:34 40.92352 28.77392 5641 ft 231 kts 336°
2026-05-04 14:34 40.93301 28.76762 5490 ft 228 kts 332°
2026-05-04 14:35 40.93731 28.76436 5473 ft 225 kts 332°
2026-05-04 14:35 40.93917 28.76291 5467 ft 224 kts 331°
2026-05-04 14:35 40.94209 28.76061 5446 ft 222 kts 331°
2026-05-04 14:36 40.95485 28.75042 5326 ft 212 kts 331°
2026-05-04 14:36 40.96736 28.74053 5110 ft 206 kts 334°
2026-05-04 14:36 40.98094 28.73567 5036 ft 203 kts 354°
2026-05-04 14:36 40.99469 28.73399 5015 ft 195 kts 356°
2026-05-04 14:37 41.00770 28.73308 5002 ft 179 kts 357°
2026-05-04 14:37 41.01963 28.73261 4989 ft 166 kts 358°
2026-05-04 14:37 41.03092 28.73229 4922 ft 157 kts 358°
2026-05-04 14:37 41.04157 28.73205 4749 ft 149 kts 358°
2026-05-04 14:38 41.05164 28.73185 4496 ft 139 kts 358°
2026-05-04 14:38 41.06119 28.73166 4328 ft 138 kts 359°
2026-05-04 14:38 41.07093 28.73146 4159 ft 142 kts 359°
2026-05-04 14:38 41.08090 28.73126 3980 ft 143 kts 359°
2026-05-04 14:39 41.09036 28.73109 3746 ft 129 kts 359°
2026-05-04 14:39 41.09951 28.73092 3611 ft 134 kts 359°
2026-05-04 14:39 41.10877 28.73073 3407 ft 133 kts 359°
2026-05-04 14:40 41.12670 28.73036 3050 ft 126 kts
2026-05-04 14:40 41.13554 28.73022 2889 ft 129 kts
2026-05-04 14:40 41.14466 28.73006 2715 ft 133 kts
2026-05-04 14:40 41.15397 28.72985 2530 ft 134 kts
2026-05-04 14:41 41.16308 28.72967 2321 ft 126 kts
2026-05-04 14:41 41.17149 28.72954 2194 ft 125 kts
2026-05-04 14:41 41.18925 28.72913 1817 ft 128 kts
2026-05-04 14:42 41.20614 28.72885 1478 ft 126 kts 359°
2026-05-04 14:42 41.21521 28.72867 1298 ft 127 kts 359°
2026-05-04 14:42 41.22410 28.72843 1062 ft 129 kts 358°
2026-05-04 14:43 41.23303 28.72834 896 ft 133 kts 359°
2026-05-04 14:43 41.24252 28.72820 740 ft 140 kts 358°
2026-05-04 14:43 41.25221 28.72798 509 ft 135 kts 357°
2026-05-04 14:43 41.26125 28.72783 392 ft 128 kts 357°
2026-05-04 14:44 41.27009 28.72751 334 ft 118 kts 359°
2026-05-04 14:44 41.27608 28.72746 334 ft 41 kts 360°
2026-05-04 14:44 41.27822 28.72739 335 ft 25 kts
2026-05-04 14:44 41.27919 28.72753 335 ft 12 kts 13°
2026-05-04 14:45 41.27999 28.72791 338 ft 12 kts 23°
2026-05-04 14:45 41.28063 28.72832 335 ft 10 kts 28°
2026-05-04 14:45 41.28120 28.72885 335 ft 10 kts 48°
2026-05-04 14:45 41.28114 28.72946 335 ft 7 kts 149°
2026-05-04 14:46 41.28065 28.72961 335 ft 8 kts 173°
2026-05-04 14:46 41.28010 28.72964 335 ft 8 kts 178°
2026-05-04 14:46 41.27951 28.72966 336 ft 9 kts 178°
2026-05-04 14:46 41.27889 28.72969 334 ft 9 kts 179°
2026-05-04 14:47 41.27824 28.72969 336 ft 10 kts 181°
2026-05-04 14:47 41.27756 28.72968 334 ft 10 kts 179°
2026-05-04 14:47 41.27685 28.72971 338 ft 10 kts 179°
2026-05-04 14:47 41.27611 28.72973 337 ft 11 kts 179°
2026-05-04 14:48 41.27534 28.72974 336 ft 11 kts 179°
2026-05-04 14:48 41.27456 28.72975 335 ft 11 kts 179°
2026-05-04 14:48 41.27370 28.72977 337 ft 16 kts 179°
2026-05-04 14:48 41.27216 28.72981 334 ft 25 kts 179°
2026-05-04 14:49 41.27058 28.72985 334 ft 21 kts 179°
2026-05-04 14:49 41.26909 28.72989 335 ft 17 kts 179°
2026-05-04 14:49 41.26838 28.72996 335 ft 1 kts 150°
2026-05-04 14:49 41.26847 28.73088 334 ft 18 kts 64°
2026-05-04 14:50 41.26866 28.73207 336 ft 12 kts 86°
2026-05-04 14:50 41.26870 28.73320 335 ft 12 kts 88°
2026-05-04 14:50 41.26871 28.73432 335 ft 10 kts 89°
2026-05-04 14:50 41.26871 28.73489 335 ft 5 kts 89°
2026-05-04 14:51 41.26845 28.73519 333 ft 6 kts 167°
2026-05-04 14:51 41.26803 28.73526 335 ft 6 kts 175°
2026-05-04 14:51 41.26787 28.73528 337 ft 0 kts 175°